Tracking 19854 objects as of 23-Sep-2019
HD Live streaming from Space Station
objects crossing your sky now

SL-8 R/B

Track SL-8 R/B now!
10-day predictions


NORAD ID: 7686
Int'l Code: 1975-016J
Perigee: 1,464.4 km
Apogee: 1,725.9 km
Inclination: 74.0 °
Period: 117.9 minutes
Semi major axis: 7966 km
RCS: 6.1934 m2 (large)
Launch date: February 28, 1975
Source: Commonwealth of Independent States (former USSR) (CIS)
Launch site: PLESETSK MISSILE AND SPACE COMPLEX (PKMTR)

Note: This is a ROCKET BODY
aabbcc
Your satellite tracking list
Your tracking list is empty




NASA's NSSDC Master Catalog

Two Line Element Set (TLE):
1  7686U 75016J   19264.55296027  .00000037  00000-0  47345-3 0  9990
2  7686  74.0040  29.0299 0164167 181.0105 283.9626 12.21039067986118
Source of the keplerian elements: AFSPC